DIAMANT R/B, 2017

Orbit data source: Space-Track

DIAMANT R/B, 2017 is space debris in LEO originally from a launch on Thu, 17 Feb 1966 UTC launched from the Hamma Guira Space Track Range (HGSTR). Debris objects in space refer to the collection of defunct objects orbiting the Earth. Examples of debris include non-operational satellites, rocket bodies, and fragments generated from explosions, collisions, or faulty payload assembly.

Loading next visibility...
DIAMANT R/B details
Identifier
2017, 1966-013B
Orbit
LEO
Last TLE update12 hours ago
Origin
Flag of FRCNES (FR)
ManufacturerSud
MissionSpacecraft
Bus & MotorRUBIS, Unknown motor
Mass65 kg wet, 65 kg dry
Launch date (UTC)
1966-02-17 (59 years ago)
Launch vehicleUnknown
Launch site
Hamma Guira Space Track Range (HGSTR)
Object type
Payload
Rocket body
Debris
Shape & HBRCyl, 2.1 m
Radar Cross Section1.347 m², Medium (>0.1 m² and < 1m²)

Expand to show TLE details & history

TLE from 12 hours ago
0 DIAMANT R/B
1 02017U 66013B   25013.84964941  .00004460  00000-0  11867-2 0  9991
2 02017  34.0597 231.8063 1047627  71.2479 299.8801 12.90372417702563
Epoch: 2025-01-13T20:23Z
Definitive object data (Epoch: 2025-01-13T20:23:29.709Z)
Latitude-0.00003°
Longitude172.36768°
Altitude966.525 km
Speed7.528 km/s
True Right ascension15h 27m 13s
True Declination0° 00' 00"
Sunlit
Object was in daylight at TLE epoch
Visualization TLE readout
Latitude-7.53577°
Longitude1.38501°
Altitude1,621.162 km
Speed6.913 km/s
Apparent Right ascension01h 41m 16s
Apparent Declination-32° 11' 20"
Sunlit
Object is in daylight
Visualization observer readout
Local Sidereal Time09:00:57
Azimuth254.304° W
Elevation-34.26°
Doppler factor1
Orbital elements
Apogee altitude2,107.851 km
Perigee altitude498.428 km
Semi-major axis7,681.277 km
Eccentricity0.1047627
Inclination34.0597°
RAAN231.8063°
Arg. of periapsis71.2479°
True anomaly288.8164°
Mean anomaly299.8801°
Eccentric anomaly294.41438°
Mean motion3.22399 °/min
BSTAR0.0011867
Orbital period111.66 mins
Loading maneuver chart data...

DIAMANT R/B Visibility forecast

Observer location: undefined°, undefined

Span
Click to sort rows by Start time (UTC) header in descending order
Start Az.
Max El. time (UTC)
Max El. Az.
Max El.
End time (UTC)
End Az.
5 mins2025-01-14 18:57:11.250Z220.45° SW2025-01-14 19:00:11.250Z161.418° S22.683°2025-01-14 19:02:11.250Z119.589° SE
5 mins2025-01-14 20:55:11.250Z235.15° WSW2025-01-14 20:57:11.250Z182.394° SSW29.338°2025-01-14 21:00:11.250Z121.402° SE
5 mins2025-01-14 22:53:11.250Z221.968° SW2025-01-14 22:54:11.250Z203.095° SW20.411°2025-01-14 22:58:11.250Z147.709° SSE
|